TimeEST,TemperatureF,Dew PointF,Humidity,Sea Level PressureIn,VisibilityMPH,Wind Direction,Wind SpeedMPH,Gust SpeedMPH,PrecipitationIn,Events,Conditions,WindDirDegrees,DateUTC
12:15 AM,37.4,35.6,93,30.35,10.0,Calm,Calm,-,N/A,,Clear,0,2011-11-26 05:15:00
12:35 AM,39.2,35.6,87,30.35,10.0,Calm,Calm,-,N/A,,Clear,0,2011-11-26 05:35:00
1:55 AM,37.4,33.8,87,30.34,10.0,Calm,Calm,-,N/A,,Clear,0,2011-11-26 06:55:00
2:15 AM,39.2,35.6,87,30.34,10.0,Calm,Calm,-,N/A,,Clear,0,2011-11-26 07:15:00
2:35 AM,37.4,35.6,93,30.34,10.0,Calm,Calm,-,N/A,,Scattered Clouds,0,2011-11-26 07:35:00
2:55 AM,37.4,35.6,93,30.34,10.0,Calm,Calm,-,N/A,,Scattered Clouds,0,2011-11-26 07:55:00
3:15 AM,37.4,35.6,93,30.34,10.0,Calm,Calm,-,N/A,,Scattered Clouds,0,2011-11-26 08:15:00
3:35 AM,39.2,35.6,87,30.34,10.0,Calm,Calm,-,N/A,,Clear,0,2011-11-26 08:35:00
3:55 AM,37.4,35.6,93,30.33,10.0,Calm,Calm,-,N/A,,Clear,0,2011-11-26 08:55:00
4:15 AM,39.2,35.6,87,30.33,10.0,Calm,Calm,-,N/A,,Clear,0,2011-11-26 09:15:00
4:35 AM,37.4,33.8,87,30.32,10.0,Calm,Calm,-,N/A,,Clear,0,2011-11-26 09:35:00
4:55 AM,37.4,33.8,87,30.33,10.0,Calm,Calm,-,N/A,,Clear,0,2011-11-26 09:55:00
5:15 AM,37.4,35.6,93,30.32,10.0,Calm,Calm,-,N/A,,Scattered Clouds,0,2011-11-26 10:15:00
5:35 AM,39.2,37.4,93,30.32,10.0,Calm,Calm,-,N/A,,Clear,0,2011-11-26 10:35:00
5:55 AM,39.2,35.6,87,30.32,10.0,Calm,Calm,-,N/A,,Clear,0,2011-11-26 10:55:00
6:15 AM,37.4,35.6,93,30.32,10.0,Calm,Calm,-,N/A,,Clear,0,2011-11-26 11:15:00
6:35 AM,39.2,35.6,87,30.33,10.0,Calm,Calm,-,N/A,,Clear,0,2011-11-26 11:35:00
6:55 AM,39.2,35.6,87,30.34,10.0,Calm,Calm,-,N/A,,Clear,0,2011-11-26 11:55:00
7:15 AM,39.2,35.6,87,30.34,10.0,Calm,Calm,-,N/A,,Clear,0,2011-11-26 12:15:00
7:35 AM,41.0,37.4,87,30.35,10.0,Calm,Calm,-,N/A,,Clear,0,2011-11-26 12:35:00
7:55 AM,42.8,41.0,93,30.36,10.0,Calm,Calm,-,N/A,,Clear,0,2011-11-26 12:55:00
8:15 AM,46.4,44.6,93,30.36,10.0,Calm,Calm,-,N/A,,Clear,0,2011-11-26 13:15:00
8:35 AM,51.8,50.0,94,30.37,10.0,Calm,Calm,-,N/A,,Clear,0,2011-11-26 13:35:00
8:55 AM,57.2,51.8,82,30.37,10.0,Calm,Calm,-,N/A,,Clear,0,2011-11-26 13:55:00
9:15 AM,60.8,51.8,72,30.37,10.0,Calm,Calm,-,N/A,,Clear,0,2011-11-26 14:15:00
9:35 AM,64.4,51.8,64,30.38,10.0,Calm,Calm,-,N/A,,Clear,0,2011-11-26 14:35:00
9:55 AM,64.4,51.8,64,30.38,10.0,ESE,4.6,-,N/A,,Clear,110,2011-11-26 14:55:00
10:15 AM,68.0,50.0,52,30.38,10.0,East,4.6,-,N/A,,Clear,90,2011-11-26 15:15:00
10:35 AM,68.0,50.0,52,30.38,10.0,East,5.8,-,N/A,,Clear,80,2011-11-26 15:35:00
10:55 AM,69.8,50.0,49,30.37,10.0,SE,6.9,-,N/A,,Clear,130,2011-11-26 15:55:00
11:15 AM,69.8,50.0,49,30.37,10.0,SE,5.8,-,N/A,,Clear,140,2011-11-26 16:15:00
11:35 AM,69.8,48.2,46,30.36,10.0,SE,5.8,-,N/A,,Clear,130,2011-11-26 16:35:00
11:55 AM,71.6,46.4,41,30.35,10.0,ESE,4.6,-,N/A,,Clear,110,2011-11-26 16:55:00
12:15 PM,69.8,46.4,43,30.34,10.0,East,6.9,-,N/A,,Scattered Clouds,100,2011-11-26 17:15:00
12:35 PM,69.8,46.4,43,30.33,10.0,ESE,6.9,-,N/A,,Scattered Clouds,120,2011-11-26 17:35:00
12:55 PM,71.6,46.4,41,30.33,10.0,SE,5.8,-,N/A,,Clear,140,2011-11-26 17:55:00
1:15 PM,71.6,46.4,41,30.32,10.0,SE,6.9,-,N/A,,Clear,140,2011-11-26 18:15:00
1:35 PM,71.6,46.4,41,30.31,10.0,SE,5.8,-,N/A,,Clear,130,2011-11-26 18:35:00
1:55 PM,69.8,46.4,43,30.30,10.0,ESE,9.2,-,N/A,,Scattered Clouds,120,2011-11-26 18:55:00
2:15 PM,68.0,46.4,46,30.30,10.0,SE,9.2,-,N/A,,Scattered Clouds,130,2011-11-26 19:15:00
2:35 PM,68.0,50.0,52,30.29,10.0,ESE,8.1,-,N/A,,Scattered Clouds,120,2011-11-26 19:35:00
2:55 PM,66.2,50.0,56,30.29,10.0,ESE,8.1,-,N/A,,Scattered Clouds,110,2011-11-26 19:55:00
3:15 PM,66.2,50.0,56,30.29,10.0,ESE,6.9,-,N/A,,Mostly Cloudy,110,2011-11-26 20:15:00
3:35 PM,68.0,50.0,52,30.30,10.0,ESE,5.8,-,N/A,,Overcast,120,2011-11-26 20:35:00
3:55 PM,66.2,48.2,52,30.30,10.0,ESE,6.9,-,N/A,,Overcast,120,2011-11-26 20:55:00
4:15 PM,64.4,50.0,59,30.30,10.0,ESE,6.9,-,N/A,,Mostly Cloudy,120,2011-11-26 21:15:00
4:35 PM,64.4,51.8,64,30.30,10.0,ESE,4.6,-,N/A,,Mostly Cloudy,120,2011-11-26 21:35:00
4:55 PM,62.6,51.8,68,30.30,10.0,SE,3.5,-,N/A,,Overcast,130,2011-11-26 21:55:00
5:15 PM,62.6,51.8,68,30.30,10.0,SE,3.5,-,N/A,,Overcast,140,2011-11-26 22:15:00
5:35 PM,60.8,53.6,77,30.29,10.0,Calm,Calm,-,N/A,,Mostly Cloudy,0,2011-11-26 22:35:00
5:55 PM,59.0,53.6,82,30.29,10.0,Calm,Calm,-,N/A,,Mostly Cloudy,0,2011-11-26 22:55:00
6:15 PM,59.0,53.6,82,30.29,10.0,Calm,Calm,-,N/A,,Scattered Clouds,0,2011-11-26 23:15:00
6:35 PM,55.4,51.8,88,30.29,10.0,Calm,Calm,-,N/A,,Clear,0,2011-11-26 23:35:00
6:55 PM,55.4,51.8,88,30.29,10.0,Calm,Calm,-,N/A,,Mostly Cloudy,0,2011-11-26 23:55:00
7:15 PM,55.4,51.8,88,30.29,10.0,Calm,Calm,-,N/A,,Mostly Cloudy,0,2011-11-27 00:15:00
7:35 PM,53.6,51.8,94,30.29,10.0,Calm,Calm,-,N/A,,Mostly Cloudy,0,2011-11-27 00:35:00
8:15 PM,53.6,51.8,94,30.29,10.0,Calm,Calm,-,N/A,,Overcast,0,2011-11-27 01:15:00
8:35 PM,53.6,51.8,94,30.29,10.0,Calm,Calm,-,N/A,,Mostly Cloudy,0,2011-11-27 01:35:00
9:15 PM,53.6,51.8,94,30.29,10.0,Calm,Calm,-,N/A,,Overcast,0,2011-11-27 02:15:00
9:55 PM,55.4,51.8,88,30.29,10.0,Calm,Calm,-,N/A,,Overcast,0,2011-11-27 02:55:00
10:15 PM,55.4,51.8,88,30.29,10.0,Calm,Calm,-,N/A,,Overcast,0,2011-11-27 03:15:00
10:35 PM,55.4,51.8,88,30.28,10.0,Calm,Calm,-,N/A,,Overcast,0,2011-11-27 03:35:00
10:55 PM,55.4,53.6,94,30.28,10.0,ENE,4.6,-,N/A,,Overcast,70,2011-11-27 03:55:00
11:15 PM,57.2,53.6,88,30.28,10.0,Calm,Calm,-,N/A,,Overcast,0,2011-11-27 04:15:00
11:55 PM,57.2,53.6,88,30.27,10.0,Calm,Calm,-,N/A,,Overcast,0,2011-11-27 04:55:00